Adrianu Mare, Romania

2:51 PM EET on February 27, 2017 (GMT +0200)
Targu Mures

Weather History for LRTM - April, 2013

Change the Weather History Date:

Monday, April 8, 2013

  Actual Average Record
Temperature  
Mean Temperature 47 °F -  
Max Temperature 53 °F 61 °F 76 °F (2016)
Min Temperature 41 °F 40 °F 26 °F (2003)
Degree Days  
Heating Degree Days 18    
Moisture  
Dew Point 39 °F    
Average Humidity 74    
Maximum Humidity 93    
Minimum Humidity 58    
Precipitation  
Precipitation 0.00 in - - ()
Sea Level Pressure  
Sea Level Pressure 29.82 in    
Wind  
Wind Speed 4 mph ()    
Max Wind Speed 9 mph    
Max Gust Speed -    
Visibility 6.2 miles    
Events      
Averages and records for this station are not official NWS values.
T = Trace of Precipitation, MM = Missing Value Source: Averaged Metar Reports

Daily Weather History Graph

Daily Weather History Graph

Search for Another Location

Airport or City:

Trip Planner

Search our weather history database for the weather conditions in past years. The results will help you decide how hot, cold, wet, or windy it might be!

Date:

Astronomy

Apr. 08, 2013 Rise Set
Actual Time 6:48 AM EEST 8:00 PM EEST
Civil Twilight 6:17 AM EEST 8:31 PM EEST
Nautical Twilight 5:39 AM EEST 9:08 PM EEST
Astronomical Twilight 5:00 AM EEST 9:48 PM EEST
Moon 5:34 AM EEST (4/8) 6:10 PM EEST (4/8)
Length of Visible Light 14h 14m
Length of Day
13h 12m
Waning Crescent, 4% of the Moon is Illuminated
Apr 8
Waning Crescent
Apr 10
New
Apr 18
First Quarter
Apr 25
Full
May 2
Last Quarter

Hourly Weather History & Observations

Time (EEST) Temp. Windchill Dew Point Humidity Pressure Visibility Wind Dir Wind Speed Gust Speed Precip Events Conditions
12:00 AM 46.4 °F 42.9 °F 39.2 °F 76% 29.80 in 6.2 mi NNW 6.9 mph - N/A   Mostly Cloudy
1:00 AM 44.6 °F 39.7 °F 39.2 °F 81% 29.80 in 6.2 mi NW 9.2 mph - N/A   Scattered Clouds
2:00 AM 44.6 °F - 39.2 °F 81% 29.80 in 6.2 mi Variable 2.3 mph - N/A   Scattered Clouds
3:00 AM 42.8 °F - 37.4 °F 81% 29.80 in 6.2 mi Variable 2.3 mph - N/A   Scattered Clouds
5:00 AM 42.8 °F 40.1 °F 39.2 °F 87% 29.80 in 6.2 mi SSW 4.6 mph - N/A   Mostly Cloudy
5:30 AM 42.8 °F 40.1 °F 39.2 °F 87% 29.80 in 6.2 mi SSW 4.6 mph - N/A   Overcast
6:00 AM 42.8 °F 40.1 °F 39.2 °F 87% 29.80 in 6.2 mi SW 4.6 mph - N/A   Mostly Cloudy
6:30 AM 42.8 °F - 39.2 °F 87% 29.80 in 6.2 mi SSW 2.3 mph - N/A   Mostly Cloudy
7:00 AM 42.8 °F - 39.2 °F 87% 29.80 in 6.2 mi Variable 2.3 mph - N/A   Mostly Cloudy
7:30 AM 41.0 °F - 39.2 °F 93% 29.80 in 6.2 mi WSW 2.3 mph - N/A   Overcast
8:00 AM 41.0 °F 38.0 °F 39.2 °F 93% 29.83 in 6.2 mi WSW 4.6 mph - N/A   Mostly Cloudy
8:30 AM 42.8 °F - 39.2 °F 87% 29.83 in 6.2 mi Variable 2.3 mph - N/A   Overcast
9:00 AM 42.8 °F - 37.4 °F 81% 29.83 in 6.2 mi Variable 2.3 mph - N/A   Mostly Cloudy
9:30 AM 42.8 °F - 37.4 °F 81% 29.83 in 6.2 mi Calm Calm - N/A   Overcast
10:00 AM 44.6 °F 42.2 °F 37.4 °F 76% 29.83 in 6.2 mi SSE 4.6 mph - N/A   Overcast
10:30 AM 44.6 °F 42.2 °F 37.4 °F 76% 29.83 in 6.2 mi SSE 4.6 mph - N/A   Overcast
11:00 AM 44.6 °F 42.2 °F 35.6 °F 71% 29.83 in 6.2 mi SE 4.6 mph - N/A   Overcast
11:30 AM 46.4 °F 44.3 °F 35.6 °F 66% 29.83 in 6.2 mi South 4.6 mph - N/A   Overcast
12:00 PM 46.4 °F 44.3 °F 35.6 °F 66% 29.83 in 6.2 mi Variable 4.6 mph - N/A   Mostly Cloudy
12:30 PM 48.2 °F - 37.4 °F 66% 29.83 in 6.2 mi Variable 4.6 mph - N/A   Scattered Clouds
1:00 PM 48.2 °F - 37.4 °F 66% 29.83 in 6.2 mi SE 4.6 mph - N/A   Scattered Clouds
1:30 PM 50.0 °F - 37.4 °F 62% 29.83 in 6.2 mi Variable 4.6 mph - N/A   Scattered Clouds
2:00 PM 50.0 °F - 37.4 °F 62% 29.83 in 6.2 mi Variable 4.6 mph - N/A   Partly Cloudy
2:30 PM 50.0 °F - 37.4 °F 62% 29.83 in 6.2 mi Variable 2.3 mph - N/A   Partly Cloudy
3:00 PM 51.8 °F - 37.4 °F 58% 29.83 in 6.2 mi SSE 4.6 mph - N/A   Scattered Clouds
3:30 PM 50.0 °F - 39.2 °F 66% 29.80 in 6.2 mi SSE 4.6 mph - N/A   Scattered Clouds
4:00 PM 51.8 °F - 37.4 °F 58% 29.80 in 6.2 mi West 4.6 mph - N/A   Mostly Cloudy
4:30 PM 51.8 °F - 39.2 °F 62% 29.80 in 6.2 mi WSW 4.6 mph - N/A   Mostly Cloudy
5:00 PM 53.6 °F - 39.2 °F 58% 29.80 in 6.2 mi Variable 6.9 mph - N/A   Scattered Clouds
5:30 PM 51.8 °F - 39.2 °F 62% 29.80 in 6.2 mi WSW 6.9 mph - N/A   Scattered Clouds
6:00 PM 50.0 °F - 39.2 °F 66% 29.80 in 6.2 mi WSW 4.6 mph - N/A   Mostly Cloudy
6:30 PM 50.0 °F - 42.8 °F 76% 29.83 in 6.2 mi SSW 9.2 mph - N/A   Mostly Cloudy
7:00 PM 50.0 °F - 41.0 °F 71% 29.83 in 6.2 mi SSW 6.9 mph - N/A   Mostly Cloudy
7:30 PM 48.2 °F - 41.0 °F 76% 29.83 in 6.2 mi SSW 6.9 mph - N/A   Mostly Cloudy
8:00 PM 48.2 °F - 41.0 °F 76% 29.83 in 6.2 mi SSW 9.2 mph - N/A   Overcast
8:30 PM 48.2 °F - 41.0 °F 76% 29.83 in 6.2 mi SSW 6.9 mph - N/A   Mostly Cloudy
9:00 PM 48.2 °F - 41.0 °F 76% 29.86 in 6.2 mi SSW 6.9 mph - N/A   Overcast
10:00 PM 46.4 °F 42.9 °F 39.2 °F 76% 29.86 in 6.2 mi SW 6.9 mph - N/A   Overcast
11:00 PM 44.6 °F 40.7 °F 39.2 °F 81% 29.86 in 6.2 mi WSW 6.9 mph - N/A   Mostly Cloudy